Location: Emblem
(62.4273°N, 6.4710°E)
Time: 10:35:08
(UTC+01:00)

Vanguard 1 - Visible Passes

Search period start: 28 January 2023 00:00
Search period end: 07 February 2023 00:00
Orbit: 649 x 3831 km, 34.3° (Epoch: 27 January)

Date Brightness Start Highest point End Pass type
(mag) Time Alt. Az. Time Alt. Az. Time Alt. Az.
28 Jan 13.6 08:10:05 10° SSW 08:18:52 20° SSE 08:30:39 10° ESE visible
29 Jan 13.5 06:16:38 10° SSE 06:20:05 11° SE 06:24:01 10° SE visible
30 Jan 13.4 06:34:38 10° S 06:39:38 13° SSE 06:45:43 10° ESE visible
31 Jan 13.4 06:53:30 10° S 06:59:17 15° SSE 07:06:35 10° SE visible
01 Feb 13.3 07:12:48 10° SSW 07:19:00 16° SSE 07:27:03 10° SE visible
02 Feb 13.2 07:32:26 10° SSW 07:38:48 17° SSE 07:47:11 10° SE visible
03 Feb 13.2 07:52:18 10° SSW 07:58:40 16° S 08:07:00 10° SE visible
04 Feb 13.1 05:58:15 10° SSE 05:59:58 10° SSE 06:01:50 10° SE visible
05 Feb 13.0 06:16:51 10° S 06:19:42 11° SSE 06:22:58 10° SE visible
06 Feb 13.0 06:36:20 10° S 06:39:31 12° SSE 06:43:15 10° SSE visible
